Location: Rochester
(43.1610°N, 77.6109°W)
Time: 10:21:09
(UTC-04:00)

ISS - Visible Passes

Search period start: 22 October 2019 00:00
Search period end: 01 November 2019 00:00
Orbit: 411 x 421 km, 51.6° (Epoch: 22 October)

Date Brightness Start Highest point End Pass type
(mag) Time Alt. Az. Time Alt. Az. Time Alt. Az.
22 Oct -0.8 07:01:18 10° S 07:03:46 19° SE 07:06:14 10° E visible
23 Oct -0.5 06:14:17 10° SSE 06:15:24 11° SE 06:16:32 10° ESE visible
24 Oct -2.8 06:59:50 10° SW 07:03:06 50° SE 07:06:23 10° ENE visible
25 Oct -1.9 06:11:38 10° SSW 06:14:35 29° SE 06:17:34 10° ENE visible
26 Oct -1.3 05:25:34 17° SSE 05:26:09 18° SE 05:28:29 10° E visible
26 Oct -3.7 06:59:14 10° WSW 07:02:34 64° NNW 07:05:56 10° NE visible
27 Oct -3.7 06:12:30 31° SW 06:13:57 79° SE 06:17:19 10° ENE visible
28 Oct -2.1 05:26:18 35° E 05:26:18 35° E 05:28:36 10° ENE visible
28 Oct -2.8 06:59:13 11° W 07:02:11 32° NNW 07:05:16 10° NE visible
29 Oct -3.3 06:12:54 40° WNW 06:13:26 45° NNW 06:16:42 10° NE visible
30 Oct -1.7 05:26:27 26° NE 05:26:27 26° NE 05:28:06 10° NE visible
30 Oct -2.1 06:59:21 11° WNW 07:01:54 22° NNW 07:04:37 10° NE visible
31 Oct -2.4 06:12:49 26° NNW 06:13:03 26° NNW 06:15:59 10° NE visible
